Weather Roundup
Issued by NWS Springfield, MO

Home | Current Version | Previous Version | Text Only | Print | Product List | Glossary On
Versions: 1 2 3 4 5 6 7 8 9 10 11 12 13 14 15 16 17 18 19 20 21 22 23 24 25 26 27 28 29 30 31 32 33 34 35 36 37 38 39 40 41 42 43 44 45 46 47 48 49 50
000
NZUS99 KSGF 220507
HRRSGF

HOURLY WEATHER
NATIONAL WEATHER SERVICE SPRINGFIELD MO
1200 AM CDT WED OCT 22 2014

......SGF CWA......

CITY           SKY/WX    TMP DP  RH WIND       PRES   REMARKS
SPRINGFIELD    CLEAR     53  44  71 E6        30.13S
JOPLIN         CLEAR     57  47  69 E7        30.11F
WEST PLAINS    CLEAR     52  44  74 E3        30.17S
ROLLA          CLEAR     51  43  74 E9        30.16R
OSAGE BEACH    CLEAR     54  43  66 E3        30.16S
BRANSON        CLEAR     48  46  93 SE3       30.14F

......SURROUNDING SGF CWA......

CITY           SKY/WX    TMP DP  RH WIND       PRES   REMARKS
CHANUTE        CLEAR     59  50  72 SE8       30.09S
PARSONS        CLEAR     62  50  64 CALM      30.09F
COFFEYVILLE    CLEAR     61  54  77 SE3       30.08S
EMPORIA        CLEAR     58  52  80 SE6       30.08R
GROVE OK       CLEAR     57  57 100 CALM      30.11S
ROGERS AR      CLEAR     58  55  90 E8        30.13F
SILOAM SPRINGS CLEAR     57  48  72 E3        30.13S
HARRISON AR    CLEAR     53  48  83 S3        30.14S
NEAR YELLVILLE CLEAR     48  43  81 CALM      30.15R

......KANSAS AND MISSOURI......

CITY           SKY/WX    TMP DP  RH WIND       PRES   REMARKS
KANSAS CTY INT CLEAR     57  45  64 SE14      30.12R
DOWNTOWN KC    CLEAR     58  45  62 E8        30.12R
COLUMBIA       CLEAR     51  42  71 E7        30.18R
SEDALIA        CLEAR     53  45  74 E6        30.17R
ST JOSEPH      CLEAR     56  45  66 SE9       30.12R
ST LOUIS       CLEAR     51  40  65 E9        30.21R
SPIRIT OF STL  CLEAR     44  42  93 CALM      30.20R
KIRKSVILLE     CLEAR     47  41  80 E8        30.20R
WICHITA        CLEAR     66  60  81 SE10      30.04F
TOPEKA         CLEAR     57  47  69 E7        30.09S
OLATHE         CLEAR     57  44  62 SE6       30.11S

......TENNESSEE......

CITY           SKY/WX    TMP DP  RH WIND       PRES   REMARKS
MEMPHIS        CLEAR     61  47  59 NE8       30.11S
NASHVILLE      CLEAR     52  43  71 N5        30.15S

......ARKANSAS.......

CITY           SKY/WX    TMP DP  RH WIND       PRES   REMARKS
FAYETTEVILLE   CLEAR     50  50 100 CALM      30.13S
FT SMITH       CLEAR     61  58  90 NE6       30.09S
LITTLE ROCK    CLEAR     57  52  83 CALM      30.10F

......OKLAHOMA.......

CITY           SKY/WX    TMP DP  RH WIND       PRES   REMARKS
TULSA          PTCLDY    67  62  84 S7        30.06S
PONCA CITY     CLEAR     66  60  81 SE8       30.05S
MCALESTER      PTCLDY    64  61  90 SE5       30.09S
OKLAHOMA CITY  CLEAR     61  56  83 SE7       30.07S

......IOWA............

CITY           SKY/WX    TMP DP  RH WIND       PRES   REMARKS
DES MOINES     CLEAR     52  40  63 SE10      30.17S
QUAD CITIES    CLEAR     38  35  89 E6        30.26S WCI  33

......ILLINOIS........

CITY           SKY/WX    TMP DP  RH WIND       PRES   REMARKS
QUINCY         CLEAR     47  39  74 E9        30.21S
CHICAGO        MOCLDY    49  37  63 E8        30.25S




USA.gov is the U.S. government's official web portal to all federal, state and local government web resources and services.